User: anonymous   Login
Location: ??????
(41.3164°N, 22.6615°E)
Time: 00:19:32
(UTC+00:00)
Language:

METEOR 2-5 DEB - Orbit

View from above orbital plane
View from above orbital plane
View from above satellite
View from above satellite

Ground track
Ground track

The orbit data is extracted from the following two-line orbital elements,

1 29291U 79095Q   23033.18715682  .00009844  00000-0  32525-2 0  9996
2 29291  81.1825 205.8342 0017886  56.1179 304.1705 14.37850684858730
Epoch (UTC): 02 February 2023 04:29:30
Eccentricity: 0.0017886
inclination: 81.1825°
perigee height: 753 km
apogee height: 778 km
right ascension of ascending node: 205.8342°
argument of perigee: 56.1179°
revolutions per day: 14.37850684
mean anomaly at epoch: 304.1705°
orbit number at epoch: 85873

The dashed part of the orbit path shows where the satellite is in the earth's shadow,  

DLR